Regional Weather Roundup
Issued by NWS

Home | Current Version | Previous Version | Text Only | Print | Product List | Glossary Off
Versions: 1 2 3 4 5 6 7 8 9 10 11 12 13 14 15 16 17 18 19 20 21 22 23 24 25 26 27 28 29 30 31 32 33 34 35 36 37 38 39 40 41 42 43 44 45 46 47 48 49 50

000
ASUS43 KFSD 271302
RWRSD

WEATHER ROUNDUP FOR SOUTH DAKOTA
NATIONAL WEATHER SERVICE SIOUX FALLS SD
800 AM CDT THU JUL 27 2017

NOTE: "FAIR" INDICATES FEW OR NO CLOUDS BELOW 12,000 FEET WITH NO
SIGNIFICANT WEATHER AND/OR OBSTRUCTIONS TO VISIBILITY.


SDZ001>005-009-010-012>017-271400-
NORTHWEST AND NORTH CENTRAL SOUTH DAKOTA

CITY           SKY/WX    TMP DP  RH WIND       PRES   REMARKS
BUFFALO          N/A     69  57  65 S12       30.04S
FAITH            N/A     68  55  63 SE13      30.13S
MOBRIDGE       SUNNY     67  61  81 SE3       30.13R
$$

SDZ012>016-024>037-041>051-057-063-072>074-271400-
SOUTHWEST AND SOUTH CENTRAL SOUTH DAKOTA

CITY           SKY/WX    TMP DP  RH WIND       PRES   REMARKS
RAPID CTY ARPT CLOUDY    71  59  65 SE7       30.15F
PIERRE         SUNNY     65  56  72 CALM      30.13S
CUSTER         CLOUDY    64  59  83 VRB6      30.26F
ELLSWORTH AFB  CLOUDY    71  60  68 S13       30.14S
PHILIP         MOSUNNY   69  58  67 SE5       30.13F
PINE RIDGE     CLOUDY    70  61  73 SE8       30.17F
SPEARFISH      FAIR      73  57  56 E7        30.15S
WINNER         FAIR      70  60  70 CALM      30.15F
$$

SDZ004>011-016>023-039-040-271400-
NORTHEAST SOUTH DAKOTA

CITY           SKY/WX    TMP DP  RH WIND       PRES   REMARKS
ABERDEEN       SUNNY     63  60  90 N6        30.15S
WATERTOWN      SUNNY     63  59  87 N6        30.14R
BROOKINGS      SUNNY     63  60  90 NW3       30.15R
SISSETON         N/A     66  62  87 NW3       30.13R
$$

SDZ017-020-022-023-036>040-048>070-271400-
SOUTHEAST SOUTH DAKOTA

CITY           SKY/WX    TMP DP  RH WIND       PRES   REMARKS
SIOUX FALLS    MOSUNNY   67  63  87 N5        30.13R
HURON          SUNNY     63  61  93 CALM      30.14R
CHAMBERLAIN    SUNNY     67  64  90 CALM      30.15S
MITCHELL       SUNNY     64  63  96 NW3       30.15R
YANKTON        SUNNY     66  63  90 NW5       30.13R
$$

ABBREVIATIONS USED IN REMARKS
   TC - TEMPERATURE IN CELSIUS
  WCI - WIND CHILL INDEX
   HX - HEAT INDEX
  VSB - VISIBILITY




USA.gov is the U.S. government's official web portal to all federal, state and local government web resources and services.